Regional Weather Roundup
Issued by NWS

Home | Current Version | Previous Version | Graphics & Text | Print | Product List | Glossary Off
Versions: 1 2 3 4 5 6 7 8 9 10 11 12 13 14 15 16 17 18 19 20 21 22 23 24 25 26 27 28 29 30 31 32 33 34 35 36 37 38 39 40 41 42 43 44 45 46 47 48 49 50

000
ASUS43 KDMX 190601
RWRIA

WEATHER ROUNDUP FOR IOWA
NATIONAL WEATHER SERVICE DES MOINES IA
100 AM CDT THU OCT 19 2017

NOTE: "FAIR" INDICATES FEW OR NO CLOUDS BELOW 12,000 FEET WITH NO
SIGNIFICANT WEATHER AND/OR OBSTRUCTIONS TO VISIBILITY.

* - THESE STATIONS ARE NOT NWS STATIONS...THUS NOT UNDER NWS
QUALITY CONTROL.  THEY ALSO DO NOT REPORT WEATHER SUCH
AS PRECIPITATION OR FOG.

IAZ001>003-012>014-020>022-031>034-043>046-190700-
   NORTHWEST IOWA

CITY           SKY/WX    TMP DP  RH WIND       PRES   REMARKS
CARROLL *      CLOUDY    52  52 100 CALM      30.05S
CHEROKEE *     CLEAR     41  41  98 CALM      30.06S
DENISON *      CLEAR     43  43 100 CALM      30.06F
LE MARS *      CLEAR     43  37  81 CALM      30.06S
ORANGE CITY *  CLEAR     54  34  47 E5        30.06S
SHELDON *      CLOUDY    37  36  93 CALM      30.04F
SIOUX CITY     CLOUDY    45  41  86 NW3       30.05S
6HR MIN TEMP:  43; 6HR MAX TEMP:  61;

SPENCER        CLOUDY    39  36  89 W6        30.06S WCI  35
6HR MIN TEMP:  38; 6HR MAX TEMP:  61;

STORM LAKE *   CLEAR     50  34  53 NE3       30.05S
$$

IAZ055>058-069>071-079>083-090>094-190700-
   SOUTHWEST IOWA

CITY           SKY/WX    TMP DP  RH WIND       PRES   REMARKS
ATLANTIC *     CLEAR     45  43  93 N7        30.04F
AUDUBON *      CLEAR     41  37  87 CALM      30.06S
CLARINDA *       N/A     46  46 100 NE5       30.07R
COUNCIL BLFS * CLEAR     55  48  76 NE5       30.04S
CRESTON *      CLEAR     54  46  76 CALM      30.06S
HARLAN  *      CLEAR     43  43 100 CALM      30.08S
LAMONI         CLEAR     53  48  83 CALM      30.05S
6HR MIN TEMP:  53; 6HR MAX TEMP:  63;

RED OAK *      CLEAR     48  46  93 CALM      30.05R
SHENANDOAH *   CLEAR     48  46  93 NE5       30.05R
$$

IAZ047>049-059>061-072>074-084-190700-
   CENTRAL IOWA

CITY           SKY/WX    TMP DP  RH WIND       PRES   REMARKS
AMES           CLEAR     47  46  97 N3        30.04R
6HR MIN TEMP:  46; 6HR MAX TEMP:  63;

ANKENY *       CLEAR     46  45  93 CALM      30.05R
BOONE *        CLOUDY    52  43  71 N6        30.03F
CHARITON *     CLEAR     54  48  82 SW5       30.04S
DES MOINES     CLEAR     55  48  77 CALM      30.03S
6HR MIN TEMP:  55; 6HR MAX TEMP:  67;

GRINNELL*      CLEAR     53  47  81 CALM      30.05R
KNOXVILLE *    CLEAR     54  46  76 SW6       30.03S
MARSHALLTOWN   CLEAR     47  45  93 NW6       30.03R
6HR MIN TEMP:  47; 6HR MAX TEMP:  66;

NEWTON *       CLEAR     55  48  76 W6        30.04S
PELLA *        CLEAR     55  49  79 SW5       30.05S
PERRY *          N/A     45  44  97 NW3       30.05S
$$

IAZ004>006-015-016-023>025-035-036-190700-
   NORTH CENTRAL IOWA

CITY           SKY/WX    TMP DP  RH WIND       PRES   REMARKS
ALGONA *       CLOUDY    46  34  61 N5        30.05F
CLARION *      CLOUDY    48  37  66 N5        30.05S
ESTHERVILLE    CLOUDY    41  36  82 NW5       30.05S
6HR MIN TEMP:  40; 6HR MAX TEMP:  58;

FORT DODGE *   CLOUDY    44  41  89 CALM      30.05S
MASON CITY     CLOUDY    42  33  70 NW6       30.07R
6HR MIN TEMP:  40; 6HR MAX TEMP:  58;

FOREST CITY *    N/A     48  32  53 N3        30.06R
WEBSTER CITY * CLOUDY    46  37  71 N6        30.03S
IOWA FALLS *     N/A     49  39  66 CALM      30.05S
$$

IAZ007>011-017>019-026>030-037>042-050>054-066-190700-
   NORTHEAST IOWA

CITY           SKY/WX    TMP DP  RH WIND       PRES   REMARKS
CEDAR RAPIDS   CLOUDY    52  46  80 NW5       30.02R
6HR MIN TEMP:  52; 6HR MAX TEMP:  63;

CHARLES CITY * CLEAR     48  36  61 N7        30.05R
CLINTON *      PTCLDY    52  44  74 SW6       30.03S
DECORAH *      CLEAR     52  32  46 NW6       30.03S
DUBUQUE        CLEAR     50  46  86 SW3       30.02R
6HR MIN TEMP:  49; 6HR MAX TEMP:  61;

MONTICELLO *   CLEAR     54  48  82 CALM      30.02R
OELWEIN *      CLEAR     54  41  62 N8        30.03S
WATERLOO       CLEAR     43  42  97 W3        30.03R
6HR MIN TEMP:  43; 6HR MAX TEMP:  62;

$$

IAZ064-065-067-068-078-190700-
   EAST CENTRAL IOWA

CITY           SKY/WX    TMP DP  RH WIND       PRES   REMARKS
DAVENPORT      PTCLDY    57  45  64 S8        30.05S
6HR MIN TEMP:  55; 6HR MAX TEMP:  63;

IOWA CITY      CLEAR     51  46  83 CALM      30.04S
6HR MIN TEMP:  50; 6HR MAX TEMP:  66;

MUSCATINE *    CLEAR     57  46  67 S6        30.04S
QUAD CITIES    CLEAR     58  43  57 CALM      30.03S
6HR MIN TEMP:  54; 6HR MAX TEMP:  65;

$$

IAZ062-063-075>077-085>089-095>099-190700-
   SOUTHEAST IOWA

CITY           SKY/WX    TMP DP  RH WIND       PRES   REMARKS
BURLINGTON     CLEAR     53  46  77 S5        30.05S
6HR MIN TEMP:  53; 6HR MAX TEMP:  66;

FAIRFIELD *    CLEAR     55  46  71 S7        30.04S
FORT MADISON * CLEAR     54  46  76 S7        30.06S
KEOKUK *       CLEAR     57  46  67 SW8       30.05S
OSKALOOSA *      N/A     50  46  87 SW6       30.04S
OTTUMWA        CLEAR     52  48  86 SW8       30.03S
6HR MIN TEMP:  52; 6HR MAX TEMP:  63;

WASHINGTON *   CLEAR     54  48  82 SW7       30.04S
$$

ABBREVIATIONS USED IN REMARKS
   TC - TEMPERATURES IN CELSIUS
  WCI - WIND CHILL INDEX
   HX - HEAT INDEX
  VSB - VISIBILITY
$$





USA.gov is the U.S. government's official web portal to all federal, state and local government web resources and services.